TAP478 GCTS-LPMA

Flight info

Callsign TAP478
Flight time N/A
Altitude 38000
Route BIMBO DCT EKNOT
Aircraft A320/M-SDE3FGHIRWY/LB1

Departure

Time 2026-05-04 14:03
Airport Tenerife Sur Airport (GCTS)

Arrival

Time N/A
Airport Cristiano Ronaldo International Airport (LPMA)
Time Latitude Longitude Altitude Speed Heading
2026-05-04 13:48 28.04679 -16.57793 205 ft 0 kts 339°
2026-05-04 13:55 28.04678 -16.57792 205 ft 2 kts 339°
2026-05-04 13:55 28.04649 -16.57775 211 ft 2 kts 319°
2026-05-04 13:55 28.04637 -16.57762 206 ft 2 kts 304°
2026-05-04 13:56 28.04629 -16.57746 208 ft 2 kts 285°
2026-05-04 13:56 28.04626 -16.57727 207 ft 2 kts 267°
2026-05-04 13:56 28.04632 -16.57696 206 ft 1 kts 246°
2026-05-04 13:57 28.04633 -16.57694 206 ft 0 kts 245°
2026-05-04 13:57 28.04633 -16.57695 205 ft 0 kts 245°
2026-05-04 13:59 28.04628 -16.57706 205 ft 3 kts 245°
2026-05-04 13:59 28.04610 -16.57751 212 ft 11 kts 245°
2026-05-04 13:59 28.04546 -16.57923 213 ft 21 kts 247°
2026-05-04 14:00 28.04465 -16.58048 205 ft 15 kts 180°
2026-05-04 14:00 28.04315 -16.58164 209 ft 14 kts 245°
2026-05-04 14:00 28.04278 -16.58261 207 ft 14 kts 247°
2026-05-04 14:01 28.04219 -16.58427 200 ft 28 kts 249°
2026-05-04 14:01 28.04157 -16.58635 207 ft 28 kts 249°
2026-05-04 14:01 28.03991 -16.58854 212 ft 9 kts 123°
2026-05-04 14:02 28.03963 -16.58772 206 ft 15 kts 111°
2026-05-04 14:02 28.03961 -16.58645 206 ft 27 kts 71°
2026-05-04 14:02 28.04127 -16.58167 205 ft 100 kts 68°
2026-05-04 14:02 28.04461 -16.57228 217 ft 154 kts 72°
2026-05-04 14:03 28.04873 -16.56028 661 ft 169 kts 73°
2026-05-04 14:03 28.05295 -16.54788 1436 ft 169 kts 69°
2026-05-04 14:03 28.05735 -16.53514 2085 ft 180 kts 67°
2026-05-04 14:03 28.06225 -16.52084 2754 ft 206 kts 66°
2026-05-04 14:04 28.07404 -16.48710 4005 ft 255 kts 68°
2026-05-04 14:04 28.08081 -16.46782 4800 ft 268 kts 68°
2026-05-04 14:04 28.08780 -16.44784 5652 ft 278 kts 68°
2026-05-04 14:05 28.10175 -16.40547 7320 ft 296 kts 69°
2026-05-04 14:05 28.10874 -16.38365 8184 ft 302 kts 70°
2026-05-04 14:05 28.11595 -16.36111 9071 ft 307 kts 70°
2026-05-04 14:06 28.12330 -16.33814 9964 ft 313 kts 70°
2026-05-04 14:06 28.13094 -16.31435 10457 ft 333 kts 70°
2026-05-04 14:06 28.13914 -16.28888 10867 ft 353 kts 70°
2026-05-04 14:06 28.14768 -16.26236 11554 ft 363 kts 70°
2026-05-04 14:07 28.15655 -16.23484 12329 ft 370 kts 70°
2026-05-04 14:07 28.16533 -16.20762 13084 ft 377 kts 70°
2026-05-04 14:07 28.17442 -16.17939 13813 ft 384 kts 70°
2026-05-04 14:07 28.18375 -16.15074 14486 ft 390 kts 67°
2026-05-04 14:08 28.19747 -16.12421 15166 ft 392 kts 48°
2026-05-04 14:08 28.21771 -16.10367 15860 ft 390 kts 28°
2026-05-04 14:08 28.24221 -16.09142 16575 ft 384 kts
2026-05-04 14:08 28.26852 -16.08794 17226 ft 380 kts 355°
2026-05-04 14:09 28.32165 -16.08734 18571 ft 389 kts 355°
2026-05-04 14:09 28.34883 -16.08700 19170 ft 393 kts 355°
2026-05-04 14:10 28.40397 -16.08609 20357 ft 400 kts 355°
2026-05-04 14:10 28.43194 -16.08560 20947 ft 404 kts 355°
2026-05-04 14:10 28.46020 -16.08511 21519 ft 407 kts 354°
2026-05-04 14:10 28.48864 -16.08464 22086 ft 411 kts 354°
2026-05-04 14:11 28.51736 -16.08415 22639 ft 415 kts 354°
2026-05-04 14:11 28.57558 -16.08309 23725 ft 422 kts 354°
2026-05-04 14:11 28.60507 -16.08254 24170 ft 425 kts 354°
2026-05-04 14:12 28.63477 -16.08200 24616 ft 428 kts 354°
2026-05-04 14:12 28.66467 -16.08149 25061 ft 431 kts 354°
2026-05-04 14:12 28.72510 -16.08049 25933 ft 437 kts 354°
2026-05-04 14:13 28.75556 -16.07997 26372 ft 440 kts 354°
2026-05-04 14:13 28.78627 -16.07945 26800 ft 442 kts 353°
2026-05-04 14:13 28.81714 -16.07894 27220 ft 445 kts 353°
2026-05-04 14:13 28.84821 -16.07844 27633 ft 448 kts 353°
2026-05-04 14:14 28.87946 -16.07793 28054 ft 451 kts 353°
2026-05-04 14:14 28.94253 -16.07679 28876 ft 456 kts 353°
2026-05-04 14:14 28.97439 -16.07622 29281 ft 459 kts 353°
2026-05-04 14:15 29.03861 -16.07516 30068 ft 464 kts 353°
2026-05-04 14:15 29.10357 -16.07406 30709 ft 470 kts 353°
2026-05-04 14:16 29.16929 -16.07288 31301 ft 475 kts 352°
2026-05-04 14:16 29.20239 -16.07231 31588 ft 477 kts 352°
2026-05-04 14:17 29.26908 -16.07114 32277 ft 479 kts 352°
2026-05-04 14:17 29.30243 -16.07051 32692 ft 479 kts 352°
2026-05-04 14:17 29.36903 -16.06927 33498 ft 478 kts 352°
2026-05-04 14:18 29.40179 -16.06869 33901 ft 478 kts 352°
2026-05-04 14:18 29.46820 -16.06756 34639 ft 477 kts 352°
2026-05-04 14:19 29.53448 -16.06645 35303 ft 476 kts 352°
2026-05-04 14:19 29.56760 -16.06588 35621 ft 476 kts 352°
2026-05-04 14:19 29.60069 -16.06531 35936 ft 476 kts 352°
2026-05-04 14:19 29.63378 -16.06475 36233 ft 475 kts 352°
2026-05-04 14:20 29.66688 -16.06418 36513 ft 476 kts 352°
2026-05-04 14:20 29.69996 -16.06360 36804 ft 476 kts 352°
2026-05-04 14:20 29.73303 -16.06301 37072 ft 476 kts 351°
2026-05-04 14:21 29.79928 -16.06181 37611 ft 476 kts 351°
2026-05-04 14:21 29.83241 -16.06121 37881 ft 476 kts 351°
2026-05-04 14:21 29.86555 -16.06063 38076 ft 477 kts 351°
2026-05-04 14:21 29.89867 -16.06006 38107 ft 476 kts 351°
2026-05-04 14:22 29.96479 -16.05892 38106 ft 475 kts 351°
2026-05-04 14:22 30.03094 -16.05775 38106 ft 475 kts 351°
2026-05-04 14:23 30.13004 -16.05597 38106 ft 474 kts 351°
2026-05-04 14:24 30.19558 -16.05490 38111 ft 474 kts 351°
2026-05-04 14:24 30.26155 -16.05369 38121 ft 474 kts 352°
2026-05-04 14:25 30.32757 -16.05247 38122 ft 474 kts 352°
2026-05-04 14:25 30.42663 -16.05072 38130 ft 474 kts 352°
2026-05-04 14:26 30.49254 -16.04953 38129 ft 474 kts 352°
2026-05-04 14:26 30.55841 -16.04839 38136 ft 473 kts 352°
2026-05-04 14:27 30.62426 -16.04721 38135 ft 473 kts 352°
2026-05-04 14:27 30.68998 -16.04603 38138 ft 472 kts 352°
2026-05-04 14:28 30.75522 -16.04494 38136 ft 472 kts 352°
2026-05-04 14:28 30.82085 -16.04372 38135 ft 471 kts 352°
2026-05-04 14:29 30.95198 -16.04127 38136 ft 471 kts 352°
2026-05-04 14:30 31.01753 -16.04020 38135 ft 471 kts 352°
2026-05-04 14:31 31.11570 -16.03853 38139 ft 470 kts 352°
2026-05-04 14:32 31.23553 -16.03621 37889 ft 469 kts 353°
2026-05-04 14:32 31.26810 -16.03555 37252 ft 468 kts 353°
2026-05-04 14:32 31.30068 -16.03494 36578 ft 468 kts 353°
2026-05-04 14:32 31.33319 -16.03439 35925 ft 467 kts 353°
2026-05-04 14:33 31.36571 -16.03384 35283 ft 467 kts 354°
2026-05-04 14:33 31.39806 -16.03337 34811 ft 461 kts 352°
2026-05-04 14:33 31.42940 -16.03679 34357 ft 446 kts 342°
2026-05-04 14:33 31.45898 -16.04569 33851 ft 435 kts 336°
2026-05-04 14:34 31.48794 -16.05573 33298 ft 432 kts 337°
2026-05-04 14:34 31.51656 -16.06565 32917 ft 424 kts 337°
2026-05-04 14:34 31.54460 -16.07534 32579 ft 417 kts 338°
2026-05-04 14:34 31.57226 -16.08489 32137 ft 412 kts 338°
2026-05-04 14:35 31.59968 -16.09437 31669 ft 409 kts 338°
2026-05-04 14:35 31.62678 -16.10374 31204 ft 406 kts 339°
2026-05-04 14:35 31.65381 -16.11314 30736 ft 403 kts 339°
2026-05-04 14:35 31.68055 -16.12251 30281 ft 400 kts 339°
2026-05-04 14:36 31.70707 -16.13181 29771 ft 396 kts 339°
2026-05-04 14:36 31.73342 -16.14098 29260 ft 393 kts 340°
2026-05-04 14:36 31.75956 -16.15005 28771 ft 390 kts 339°
2026-05-04 14:36 31.78550 -16.15905 28272 ft 387 kts 339°
2026-05-04 14:37 31.81119 -16.16797 27793 ft 384 kts 339°
2026-05-04 14:37 31.83669 -16.17684 27324 ft 381 kts 339°
2026-05-04 14:37 31.86200 -16.18569 26859 ft 378 kts 339°
2026-05-04 14:37 31.88708 -16.19446 26403 ft 375 kts 339°
2026-05-04 14:38 31.91200 -16.20315 25955 ft 372 kts 339°
2026-05-04 14:38 31.93676 -16.21181 25512 ft 370 kts 339°
2026-05-04 14:38 31.96132 -16.22040 25076 ft 367 kts 339°
2026-05-04 14:38 31.98572 -16.22896 24643 ft 365 kts 339°
2026-05-04 14:39 32.00997 -16.23743 24224 ft 362 kts 339°
2026-05-04 14:39 32.03406 -16.24585 23801 ft 360 kts 339°
2026-05-04 14:39 32.05802 -16.25425 23331 ft 358 kts 339°
2026-05-04 14:40 32.10513 -16.27076 22458 ft 353 kts 339°
2026-05-04 14:40 32.12858 -16.27899 22020 ft 350 kts 339°
2026-05-04 14:40 32.15184 -16.28717 21602 ft 348 kts 339°
2026-05-04 14:40 32.17488 -16.29529 21183 ft 345 kts 339°
2026-05-04 14:41 32.19793 -16.30327 20781 ft 343 kts 340°
2026-05-04 14:41 32.22080 -16.31091 20386 ft 341 kts 341°
2026-05-04 14:41 32.26619 -16.32579 19619 ft 336 kts 341°
2026-05-04 14:42 32.31095 -16.34063 18888 ft 332 kts 341°
2026-05-04 14:42 32.33314 -16.34806 18532 ft 330 kts 341°
2026-05-04 14:42 32.35515 -16.35546 18152 ft 328 kts 341°
2026-05-04 14:43 32.37703 -16.36278 17768 ft 326 kts 341°
2026-05-04 14:43 32.39879 -16.37003 17394 ft 324 kts 341°
2026-05-04 14:43 32.42020 -16.37717 17214 ft 313 kts 341°
2026-05-04 14:43 32.44068 -16.38399 17078 ft 298 kts 341°
2026-05-04 14:44 32.46036 -16.39059 16801 ft 290 kts 341°
2026-05-04 14:44 32.47951 -16.39707 16498 ft 284 kts 340°
2026-05-04 14:44 32.49844 -16.40348 16199 ft 283 kts 340°
2026-05-04 14:44 32.51738 -16.40988 15905 ft 283 kts 341°
2026-05-04 14:45 32.53627 -16.41624 15614 ft 282 kts 341°
2026-05-04 14:45 32.55515 -16.42256 15322 ft 282 kts 341°
2026-05-04 14:45 32.57406 -16.42886 15020 ft 282 kts 341°
2026-05-04 14:45 32.59292 -16.43516 14744 ft 281 kts 341°
2026-05-04 14:46 32.61174 -16.44149 14467 ft 281 kts 341°
2026-05-04 14:46 32.63057 -16.44786 14139 ft 282 kts 341°
2026-05-04 14:46 32.64978 -16.45436 13705 ft 287 kts 341°
2026-05-04 14:46 32.66901 -16.46086 13048 ft 291 kts 341°
2026-05-04 14:47 32.68866 -16.46750 12224 ft 296 kts 341°
2026-05-04 14:47 32.70855 -16.47421 11432 ft 299 kts 342°
2026-05-04 14:47 32.72839 -16.48089 10665 ft 301 kts 342°
2026-05-04 14:47 32.74862 -16.48770 9902 ft 303 kts 342°
2026-05-04 14:48 32.76894 -16.49455 9066 ft 304 kts 342°
2026-05-04 14:48 32.78795 -16.50424 8553 ft 290 kts 326°
2026-05-04 14:48 32.80290 -16.52012 7617 ft 291 kts 309°
2026-05-04 14:48 32.81622 -16.53858 6667 ft 297 kts 309°
2026-05-04 14:49 32.82975 -16.55733 5839 ft 296 kts 309°
2026-05-04 14:49 32.84263 -16.57506 5707 ft 270 kts 309°
2026-05-04 14:49 32.85447 -16.59134 5584 ft 253 kts 309°
2026-05-04 14:49 32.86579 -16.60685 5426 ft 243 kts 309°
2026-05-04 14:50 32.87687 -16.62183 5159 ft 241 kts 314°
2026-05-04 14:50 32.89097 -16.63214 4881 ft 240 kts 342°
2026-05-04 14:50 32.90750 -16.63363 4526 ft 240 kts 10°
2026-05-04 14:50 32.92271 -16.62605 4174 ft 238 kts 38°
2026-05-04 14:51 32.93331 -16.61125 3840 ft 236 kts 65°
2026-05-04 14:51 32.93722 -16.59264 3546 ft 232 kts 91°
2026-05-04 14:51 32.93396 -16.57419 3215 ft 228 kts 117°
2026-05-04 14:51 32.92441 -16.55955 3014 ft 224 kts 142°
2026-05-04 14:52 32.91062 -16.55112 3002 ft 224 kts 167°
2026-05-04 14:52 32.89517 -16.55036 3004 ft 224 kts 191°
2026-05-04 14:52 32.88091 -16.55756 3004 ft 225 kts 216°
2026-05-04 14:52 32.86980 -16.57067 3002 ft 226 kts 227°
2026-05-04 14:53 32.86583 -16.57587 3001 ft 226 kts 227°